Time,TemperatureF,DewpointF,PressureIn,WindDirection,WindDirectionDegrees,WindSpeedMPH,WindSpeedGustMPH,Humidity,HourlyPrecipIn,Conditions,Clouds,dailyrainin,SolarRadiationWatts/m^2,SoftwareType,DateUTC
2013-04-22 00:06:00,48.8,46.0,27.62,NNE,33,3.0,10.0,90,0.00,,,0.29,487,Wunderground v.1.15,2013-04-22 05:06:00,
2013-04-22 00:11:00,48.7,45.9,27.62,NNE,32,2.0,3.0,90,0.00,,,0.00,487,Wunderground v.1.15,2013-04-22 05:11:00,
2013-04-22 00:18:00,48.1,45.3,20.03,NNW,329,1.0,3.0,90,0.00,,,0.00,489,Wunderground v.1.15,2013-04-22 05:18:00,
2013-04-22 00:23:00,47.6,44.8,27.63,NNW,331,2.0,4.0,90,0.00,,,0.00,478,Wunderground v.1.15,2013-04-22 05:23:00,
2013-04-22 00:29:00,47.2,44.4,21.94,NW,320,3.0,4.0,90,0.00,,,0.00,471,Wunderground v.1.15,2013-04-22 05:29:00,
2013-04-22 00:36:00,46.8,44.0,23.84,NNW,331,3.0,4.0,90,0.00,,,0.00,464,Wunderground v.1.15,2013-04-22 05:36:00,
2013-04-22 00:41:00,46.5,44.0,23.84,NNW,346,3.0,4.0,91,0.00,,,0.01,461,Wunderground v.1.15,2013-04-22 05:41:00,
2013-04-22 00:47:00,46.1,43.6,20.04,North,355,3.0,4.0,91,0.00,,,0.01,454,Wunderground v.1.15,2013-04-22 05:47:00,
2013-04-22 00:53:00,45.8,43.6,20.04,NNE,14,3.0,4.0,92,0.04,,,0.02,452,Wunderground v.1.15,2013-04-22 05:53:00,
2013-04-22 00:59:00,45.7,43.5,25.74,NE,56,2.0,2.0,92,0.10,,,0.03,448,Wunderground v.1.15,2013-04-22 05:59:00,
2013-04-22 01:05:00,45.6,43.4,25.74,West,272,2.0,7.0,92,0.07,,,0.03,450,Wunderground v.1.15,2013-04-22 06:05:00,
2013-04-22 01:11:00,45.4,43.5,20.05,WNW,303,4.0,7.0,93,0.04,,,0.03,445,Wunderground v.1.15,2013-04-22 06:11:00,
2013-04-22 01:17:00,45.2,43.3,20.05,NE,55,5.0,9.0,93,0.04,,,0.04,441,Wunderground v.1.15,2013-04-22 06:17:00,
2013-04-22 01:23:00,45.0,43.1,20.05,NNE,14,3.0,4.0,93,0.04,,,0.04,446,Wunderground v.1.15,2013-04-22 06:23:00,
2013-04-22 01:29:00,44.9,43.0,31.44,NNE,29,2.0,5.0,93,0.04,,,0.04,441,Wunderground v.1.15,2013-04-22 06:29:00,
2013-04-22 01:35:00,44.8,42.9,31.42,NNE,32,4.0,6.0,93,0.00,,,0.04,441,Wunderground v.1.15,2013-04-22 06:35:00,
2013-04-22 01:41:00,44.6,42.7,31.42,ENE,59,6.0,9.0,93,0.00,,,0.04,439,Wunderground v.1.15,2013-04-22 06:41:00,
2013-04-22 01:47:00,44.5,42.6,20.05,NE,52,10.0,11.0,93,0.00,,,0.04,432,Wunderground v.1.15,2013-04-22 06:47:00,
2013-04-22 01:53:00,44.3,42.4,20.05,North,10,9.0,10.0,93,0.00,,,0.04,438,Wunderground v.1.15,2013-04-22 06:53:00,
2013-04-22 01:59:00,44.2,42.3,31.43,NE,34,7.0,9.0,93,0.00,,,0.05,429,Wunderground v.1.15,2013-04-22 06:59:00,
2013-04-22 02:05:00,43.9,42.0,25.75,NNE,17,8.0,9.0,93,0.00,,,0.05,425,Wunderground v.1.15,2013-04-22 07:05:00,
2013-04-22 02:11:00,43.8,41.9,31.45,NNE,26,8.0,9.0,93,0.00,,,0.05,427,Wunderground v.1.15,2013-04-22 07:11:00,
2013-04-22 02:17:00,43.5,41.6,20.06,NNE,26,7.0,9.0,93,0.00,,,0.05,418,Wunderground v.1.15,2013-04-22 07:17:00,
2013-04-22 02:23:00,43.2,41.3,20.06,NE,37,7.0,10.0,93,0.00,,,0.05,422,Wunderground v.1.15,2013-04-22 07:23:00,
2013-04-22 02:29:00,43.1,41.2,20.06,NNE,31,7.0,8.0,93,0.00,,,0.05,417,Wunderground v.1.15,2013-04-22 07:29:00,
2013-04-22 02:35:00,43.1,41.2,20.06,NE,40,7.0,8.0,93,0.00,,,0.05,413,Wunderground v.1.15,2013-04-22 07:35:00,
2013-04-22 02:41:00,43.1,41.5,20.06,NE,41,7.0,9.0,94,0.00,,,0.05,415,Wunderground v.1.15,2013-04-22 07:41:00,
2013-04-22 02:47:00,43.0,41.4,27.66,NNE,30,7.0,9.0,94,0.00,,,0.05,418,Wunderground v.1.15,2013-04-22 07:47:00,
2013-04-22 02:53:00,42.9,41.3,29.56,NNE,22,6.0,6.0,94,0.00,,,0.05,420,Wunderground v.1.15,2013-04-22 07:53:00,
2013-04-22 02:59:00,42.8,41.2,20.07,NE,34,6.0,6.0,94,0.00,,,0.05,417,Wunderground v.1.15,2013-04-22 07:59:00,
2013-04-22 03:05:00,42.7,41.1,20.07,NNE,30,6.0,16.0,94,0.00,,,0.05,415,Wunderground v.1.15,2013-04-22 08:05:00,
2013-04-22 03:11:00,42.7,41.1,27.67,NNE,25,6.0,6.0,94,0.00,,,0.05,420,Wunderground v.1.15,2013-04-22 08:11:00,
2013-04-22 03:17:00,42.6,41.0,21.97,NE,38,6.0,8.0,94,0.00,,,0.05,418,Wunderground v.1.15,2013-04-22 08:17:00,
2013-04-22 03:23:00,42.6,41.0,22.80,NE,46,8.0,10.0,94,0.00,,,0.05,415,Wunderground v.1.15,2013-04-22 08:23:00,
2013-04-22 03:29:00,42.5,40.9,27.67,NE,43,7.0,7.0,94,0.00,,,0.05,417,Wunderground v.1.15,2013-04-22 08:29:00,
2013-04-22 03:35:00,42.6,41.0,20.07,NNE,28,7.0,7.0,94,0.00,,,0.05,418,Wunderground v.1.15,2013-04-22 08:35:00,
2013-04-22 03:41:00,42.5,40.9,23.88,NE,40,5.0,6.0,94,0.00,,,0.05,417,Wunderground v.1.15,2013-04-22 08:41:00,
2013-04-22 03:48:00,42.5,40.9,20.07,East,92,4.0,10.0,94,0.23,,,0.07,418,Wunderground v.1.15,2013-04-22 08:48:00,
2013-04-22 03:53:00,42.5,41.2,20.07,ENE,75,9.0,11.0,95,0.11,,,0.07,417,Wunderground v.1.15,2013-04-22 08:53:00,
2013-04-22 03:59:00,42.4,41.1,20.08,ENE,72,9.0,9.0,95,0.19,,,0.09,415,Wunderground v.1.15,2013-04-22 08:59:00,
2013-04-22 04:05:00,42.4,41.1,20.08,NE,46,7.0,13.0,95,0.30,,,0.13,415,Wunderground v.1.15,2013-04-22 09:05:00,
2013-04-22 04:11:00,42.4,41.1,20.08,NE,34,7.0,9.0,95,0.12,,,0.14,413,Wunderground v.1.15,2013-04-22 09:11:00,
2013-04-22 04:17:00,42.5,41.2,20.08,East,86,8.0,9.0,95,0.09,,,0.15,417,Wunderground v.1.15,2013-04-22 09:17:00,
2013-04-22 04:23:00,42.5,41.2,20.08,ENE,71,7.0,10.0,95,0.05,,,0.15,418,Wunderground v.1.15,2013-04-22 09:23:00,
2013-04-22 04:29:00,42.5,41.2,20.08,ENE,64,9.0,10.0,95,0.00,,,0.15,417,Wunderground v.1.15,2013-04-22 09:29:00,
2013-04-22 04:35:00,42.5,41.4,20.08,NNE,33,9.0,10.0,96,0.00,,,0.15,422,Wunderground v.1.15,2013-04-22 09:35:00,
2013-04-22 04:41:00,42.5,41.4,20.08,NE,44,7.0,8.0,96,0.00,,,0.16,420,Wunderground v.1.15,2013-04-22 09:41:00,
2013-04-22 04:47:00,42.6,41.5,20.08,NNE,30,7.0,8.0,96,0.00,,,0.16,420,Wunderground v.1.15,2013-04-22 09:47:00,
2013-04-22 04:53:00,42.6,41.5,16.28,NNE,28,6.0,7.0,96,0.00,,,0.16,424,Wunderground v.1.15,2013-04-22 09:53:00,
2013-04-22 04:59:00,42.7,41.6,20.09,NE,47,6.0,6.0,96,0.00,,,0.16,422,Wunderground v.1.15,2013-04-22 09:59:00,
2013-04-22 05:05:00,42.7,41.6,20.09,NE,40,6.0,13.0,96,0.00,,,0.16,422,Wunderground v.1.15,2013-04-22 10:05:00,
2013-04-22 05:11:00,42.9,41.8,29.59,NNE,22,7.0,7.0,96,0.00,,,0.16,425,Wunderground v.1.15,2013-04-22 10:11:00,
2013-04-22 05:17:00,43.4,42.3,20.09,ENE,69,8.0,10.0,96,0.00,,,0.16,431,Wunderground v.1.15,2013-04-22 10:17:00,
2013-04-22 05:23:00,43.6,42.5,20.09,East,86,9.0,10.0,96,0.00,,,0.16,434,Wunderground v.1.15,2013-04-22 10:23:00,
2013-04-22 05:29:00,43.8,42.7,21.99,East,87,10.0,12.0,96,0.00,,,0.16,439,Wunderground v.1.15,2013-04-22 10:29:00,
2013-04-22 05:35:00,43.6,42.5,20.09,East,88,11.0,12.0,96,0.00,,,0.16,438,Wunderground v.1.15,2013-04-22 10:35:00,
2013-04-22 05:41:00,43.6,42.5,20.09,East,80,10.0,11.0,96,0.00,,,0.16,436,Wunderground v.1.15,2013-04-22 10:41:00,
2013-04-22 05:48:00,43.6,42.5,18.19,NE,41,9.0,11.0,96,0.00,,,0.17,436,Wunderground v.1.15,2013-04-22 10:48:00,
2013-04-22 05:53:00,43.7,42.6,20.09,NE,37,8.0,10.0,96,0.09,,,0.18,438,Wunderground v.1.15,2013-04-22 10:53:00,
2013-04-22 05:59:00,43.5,42.4,20.10,NNE,30,6.0,6.0,96,0.17,,,0.21,438,Wunderground v.1.15,2013-04-22 10:59:00,
2013-04-22 06:05:00,43.6,42.5,20.10,NE,34,6.0,14.0,96,0.06,,,0.21,432,Wunderground v.1.15,2013-04-22 11:05:00,
2013-04-22 06:11:00,43.8,42.7,20.09,NE,49,7.0,7.0,96,0.04,,,0.21,418,Wunderground v.1.15,2013-04-22 11:11:00,
2013-04-22 06:17:00,44.1,43.3,20.09,NE,56,7.0,9.0,97,0.00,,,0.21,401,Wunderground v.1.15,2013-04-22 11:17:00,
2013-04-22 06:23:00,44.4,43.3,20.09,ENE,67,8.0,9.0,96,0.00,,,0.21,396,Wunderground v.1.15,2013-04-22 11:23:00,
2013-04-22 06:29:00,44.5,43.4,23.79,ENE,64,8.0,8.0,96,0.00,,,0.22,388,Wunderground v.1.15,2013-04-22 11:29:00,
2013-04-22 06:35:00,44.7,43.9,27.56,ENE,71,6.0,8.0,97,0.00,,,0.22,380,Wunderground v.1.15,2013-04-22 11:35:00,
2013-04-22 06:41:00,44.8,44.0,31.31,ENE,57,4.0,5.0,97,0.00,,,0.22,373,Wunderground v.1.15,2013-04-22 11:41:00,
2013-04-22 06:47:00,44.9,43.8,29.42,NW,323,3.0,5.0,96,0.00,,,0.23,373,Wunderground v.1.15,2013-04-22 11:47:00,
2013-04-22 06:53:00,44.9,43.8,27.30,NE,42,2.0,3.0,96,0.00,,,0.23,367,Wunderground v.1.15,2013-04-22 11:53:00,
2013-04-22 06:59:00,45.0,43.9,31.31,NE,45,2.0,2.0,96,0.06,,,0.24,364,Wunderground v.1.15,2013-04-22 11:59:00,
2013-04-22 07:05:00,45.1,44.0,31.33,NE,45,0.0,15.0,96,0.12,,,0.26,355,Wunderground v.1.15,2013-04-22 12:05:00,
2013-04-22 07:11:00,45.2,44.1,31.32,NE,45,1.0,1.0,96,0.17,,,0.27,343,Wunderground v.1.15,2013-04-22 12:11:00,
2013-04-22 07:17:00,45.6,44.8,27.52,NE,36,1.0,4.0,97,0.14,,,0.29,339,Wunderground v.1.15,2013-04-22 12:17:00,
2013-04-22 07:23:00,45.8,45.0,31.31,NE,36,2.0,2.0,97,0.17,,,0.30,343,Wunderground v.1.15,2013-04-22 12:23:00,
2013-04-22 07:29:00,45.9,45.1,31.33,NE,37,1.0,1.0,97,0.16,,,0.32,341,Wunderground v.1.15,2013-04-22 12:29:00,
2013-04-22 07:35:00,45.8,44.7,31.29,NE,38,2.0,3.0,96,0.36,,,0.35,338,Wunderground v.1.15,2013-04-22 12:35:00,
2013-04-22 07:41:00,45.8,44.7,31.28,ENE,67,3.0,3.0,96,0.23,,,0.37,327,Wunderground v.1.15,2013-04-22 12:41:00,
2013-04-22 07:48:00,45.9,44.8,31.28,ENE,69,3.0,4.0,96,0.07,,,0.37,311,Wunderground v.1.15,2013-04-22 12:48:00,
2013-04-22 07:53:00,45.9,44.8,32.39,East,88,3.0,4.0,96,0.04,,,0.37,308,Wunderground v.1.15,2013-04-22 12:53:00,
2013-04-22 07:59:00,46.0,44.9,31.26,East,86,4.0,4.0,96,0.00,,,0.37,299,Wunderground v.1.15,2013-04-22 12:59:00,
2013-04-22 08:05:00,46.0,44.9,32.39,ENE,69,4.0,11.0,96,0.00,,,0.37,306,Wunderground v.1.15,2013-04-22 13:05:00,
2013-04-22 08:11:00,46.1,45.0,31.26,NE,50,5.0,6.0,96,0.00,,,0.38,308,Wunderground v.1.15,2013-04-22 13:11:00,
2013-04-22 08:17:00,46.2,45.1,31.26,ENE,69,4.0,6.0,96,0.07,,,0.39,306,Wunderground v.1.15,2013-04-22 13:17:00,
2013-04-22 08:23:00,46.2,45.1,31.26,ENE,68,4.0,5.0,96,0.07,,,0.39,292,Wunderground v.1.15,2013-04-22 13:23:00,
2013-04-22 08:29:00,46.3,45.2,31.25,ENE,69,4.0,4.0,96,0.05,,,0.39,288,Wunderground v.1.15,2013-04-22 13:29:00,
2013-04-22 08:35:00,46.5,45.7,29.67,ENE,69,5.0,7.0,97,0.04,,,0.40,288,Wunderground v.1.15,2013-04-22 13:35:00,
2013-04-22 08:41:00,46.7,45.9,31.02,ENE,59,6.0,6.0,97,0.04,,,0.40,285,Wunderground v.1.15,2013-04-22 13:41:00,
2013-04-22 08:47:00,46.9,46.1,32.37,East,84,7.0,8.0,97,0.04,,,0.40,288,Wunderground v.1.15,2013-04-22 13:47:00,
2013-04-22 08:53:00,47.0,46.2,31.24,ENE,78,8.0,11.0,97,0.00,,,0.40,292,Wunderground v.1.15,2013-04-22 13:53:00,
2013-04-22 08:59:00,47.2,46.4,31.24,East,92,9.0,9.0,97,0.00,,,0.41,274,Wunderground v.1.15,2013-04-22 13:59:00,
2013-04-22 09:05:00,47.4,46.6,31.24,East,80,9.0,11.0,97,0.00,,,0.41,276,Wunderground v.1.15,2013-04-22 14:05:00,
2013-04-22 09:11:00,47.5,46.7,31.24,East,87,10.0,11.0,97,0.00,,,0.41,281,Wunderground v.1.15,2013-04-22 14:11:00,
2013-04-22 09:17:00,47.8,47.0,31.24,East,87,10.0,12.0,97,0.00,,,0.41,281,Wunderground v.1.15,2013-04-22 14:17:00,
2013-04-22 09:23:00,48.1,47.3,31.24,East,91,9.0,9.0,97,0.00,,,0.42,287,Wunderground v.1.15,2013-04-22 14:23:00,
2013-04-22 09:29:00,48.4,47.6,31.22,East,101,9.0,10.0,97,0.00,,,0.42,288,Wunderground v.1.15,2013-04-22 14:29:00,
2013-04-22 09:35:00,48.7,47.6,32.34,East,89,10.0,11.0,96,0.00,,,0.42,294,Wunderground v.1.15,2013-04-22 14:35:00,
2013-04-22 09:41:00,49.0,47.9,31.22,East,97,11.0,11.0,96,0.00,,,0.42,294,Wunderground v.1.15,2013-04-22 14:41:00,
2013-04-22 09:48:00,49.0,47.9,31.22,East,99,11.0,13.0,96,0.00,,,0.42,295,Wunderground v.1.15,2013-04-22 14:48:00,
2013-04-22 09:53:00,49.2,48.1,31.22,East,101,11.0,12.0,96,0.00,,,0.42,294,Wunderground v.1.15,2013-04-22 14:53:00,
2013-04-22 09:59:00,49.3,48.2,25.58,East,86,11.0,11.0,96,0.00,,,0.42,302,Wunderground v.1.15,2013-04-22 14:59:00,
2013-04-22 10:05:00,49.7,48.6,25.58,ESE,105,11.0,12.0,96,0.00,,,0.42,304,Wunderground v.1.15,2013-04-22 15:05:00,
2013-04-22 10:11:00,49.6,48.2,31.21,ESE,103,10.0,10.0,95,0.00,,,0.42,302,Wunderground v.1.15,2013-04-22 15:11:00,
2013-04-22 10:18:00,49.5,48.1,32.32,East,93,11.0,13.0,95,0.00,,,0.42,297,Wunderground v.1.15,2013-04-22 15:18:00,
2013-04-22 10:23:00,49.9,48.8,32.32,East,87,11.0,13.0,96,0.00,,,0.42,301,Wunderground v.1.15,2013-04-22 15:23:00,
2013-04-22 10:29:00,50.8,49.7,32.32,ESE,113,10.0,11.0,96,0.00,,,0.42,315,Wunderground v.1.15,2013-04-22 15:29:00,
2013-04-22 10:35:00,50.8,49.4,26.91,ESE,106,10.0,11.0,95,0.00,,,0.42,336,Wunderground v.1.15,2013-04-22 15:35:00,
2013-04-22 10:41:00,50.8,49.1,31.20,ESE,107,10.0,10.0,94,0.00,,,0.42,325,Wunderground v.1.15,2013-04-22 15:41:00,
2013-04-22 10:47:00,50.7,49.0,31.19,East,90,10.0,10.0,94,0.00,,,0.42,316,Wunderground v.1.15,2013-04-22 15:47:00,
2013-04-22 10:53:00,51.1,49.7,29.60,ESE,114,10.0,11.0,95,0.00,,,0.42,313,Wunderground v.1.15,2013-04-22 15:53:00,
2013-04-22 10:59:00,51.1,49.4,30.95,ESE,111,10.0,10.0,94,0.00,,,0.42,323,Wunderground v.1.15,2013-04-22 15:59:00,
2013-04-22 11:05:00,51.3,49.6,31.19,ESE,102,10.0,14.0,94,0.00,,,0.42,322,Wunderground v.1.15,2013-04-22 16:05:00,
2013-04-22 11:11:00,51.6,49.6,30.39,East,96,11.0,12.0,93,0.00,,,0.42,334,Wunderground v.1.15,2013-04-22 16:11:00,
2013-04-22 11:17:00,51.7,49.7,30.39,ESE,121,11.0,13.0,93,0.00,,,0.42,332,Wunderground v.1.15,2013-04-22 16:17:00,
2013-04-22 11:23:00,51.7,49.7,30.94,East,86,10.0,11.0,93,0.00,,,0.42,329,Wunderground v.1.15,2013-04-22 16:23:00,
2013-04-22 11:29:00,51.7,49.7,30.94,ESE,112,10.0,10.0,93,0.00,,,0.42,329,Wunderground v.1.15,2013-04-22 16:29:00,
2013-04-22 11:35:00,51.6,49.4,31.17,East,99,10.0,11.0,92,0.00,,,0.42,325,Wunderground v.1.15,2013-04-22 16:35:00,
2013-04-22 11:41:00,51.8,49.5,31.17,ESE,102,10.0,11.0,92,0.00,,,0.42,325,Wunderground v.1.15,2013-04-22 16:41:00,
2013-04-22 11:47:00,52.0,49.7,31.17,SE,126,10.0,11.0,92,0.00,,,0.42,323,Wunderground v.1.15,2013-04-22 16:47:00,
2013-04-22 11:53:00,51.9,49.6,31.17,SE,124,10.0,12.0,92,0.00,,,0.42,322,Wunderground v.1.15,2013-04-22 16:53:00,
2013-04-22 11:59:00,51.8,49.5,31.16,SE,125,10.0,10.0,92,0.00,,,0.42,313,Wunderground v.1.15,2013-04-22 16:59:00,
2013-04-22 12:05:00,51.8,49.5,32.27,ESE,119,10.0,15.0,92,0.00,,,0.42,309,Wunderground v.1.15,2013-04-22 17:05:00,
2013-04-22 12:11:00,51.8,49.5,31.16,ESE,102,9.0,9.0,92,0.00,,,0.42,311,Wunderground v.1.15,2013-04-22 17:11:00,
2013-04-22 12:17:00,51.7,49.5,31.16,East,97,9.0,9.0,92,0.00,,,0.42,313,Wunderground v.1.15,2013-04-22 17:17:00,
2013-04-22 12:23:00,51.7,49.5,28.20,ESE,102,9.0,10.0,92,0.00,,,0.42,313,Wunderground v.1.15,2013-04-22 17:23:00,
2013-04-22 12:29:00,51.8,49.5,32.26,ESE,110,9.0,9.0,92,0.00,,,0.42,311,Wunderground v.1.15,2013-04-22 17:29:00,
2013-04-22 12:35:00,51.9,49.6,32.25,East,100,9.0,12.0,92,0.00,,,0.42,315,Wunderground v.1.15,2013-04-22 17:35:00,
2013-04-22 12:41:00,51.8,49.5,32.25,ESE,111,9.0,10.0,92,0.00,,,0.42,315,Wunderground v.1.15,2013-04-22 17:41:00,
2013-04-22 12:47:00,51.8,49.3,30.89,ESE,113,10.0,11.0,91,0.00,,,0.42,315,Wunderground v.1.15,2013-04-22 17:47:00,
2013-04-22 12:53:00,51.8,49.5,31.14,ESE,119,9.0,11.0,92,0.00,,,0.42,316,Wunderground v.1.15,2013-04-22 17:53:00,
2013-04-22 12:59:00,51.9,49.6,31.13,ESE,111,8.0,9.0,92,0.00,,,0.42,320,Wunderground v.1.15,2013-04-22 17:59:00,
2013-04-22 13:05:00,52.1,49.8,32.24,ESE,119,8.0,15.0,92,0.00,,,0.42,323,Wunderground v.1.15,2013-04-22 18:05:00,
2013-04-22 13:11:00,52.3,49.8,31.13,SE,129,9.0,10.0,91,0.00,,,0.42,332,Wunderground v.1.15,2013-04-22 18:11:00,
2013-04-22 13:17:00,52.5,49.7,24.09,ESE,117,10.0,11.0,90,0.00,,,0.42,329,Wunderground v.1.15,2013-04-22 18:17:00,
2013-04-22 13:23:00,52.6,50.0,24.09,ESE,119,9.0,10.0,91,0.00,,,0.42,336,Wunderground v.1.15,2013-04-22 18:23:00,
2013-04-22 13:29:00,52.6,49.8,31.11,ESE,114,9.0,9.0,90,0.00,,,0.42,339,Wunderground v.1.15,2013-04-22 18:29:00,
2013-04-22 13:35:00,52.6,49.8,32.22,SE,126,9.0,9.0,90,0.00,,,0.42,338,Wunderground v.1.15,2013-04-22 18:35:00,
2013-04-22 13:41:00,52.5,49.7,32.22,SE,136,9.0,10.0,90,0.00,,,0.42,338,Wunderground v.1.15,2013-04-22 18:41:00,
2013-04-22 13:47:00,52.5,49.9,32.22,SSE,156,8.0,10.0,91,0.00,,,0.43,339,Wunderground v.1.15,2013-04-22 18:47:00,
2013-04-22 13:53:00,52.2,49.4,28.14,South,169,7.0,8.0,90,0.10,,,0.44,348,Wunderground v.1.15,2013-04-22 18:53:00,
2013-04-22 13:59:00,51.8,49.0,24.07,NW,315,8.0,20.0,90,0.14,,,0.45,371,Wunderground v.1.15,2013-04-22 18:59:00,
2013-04-22 14:05:00,44.4,41.1,24.07,WNW,303,15.0,26.0,88,0.33,,,0.49,264,Wunderground v.1.15,2013-04-22 19:05:00,
2013-04-22 14:11:00,41.8,39.4,24.07,NW,315,18.0,21.0,91,0.30,,,0.52,230,Wunderground v.1.15,2013-04-22 19:11:00,
2013-04-22 14:17:00,40.2,38.1,24.08,NW,307,18.0,24.0,92,0.50,,,0.56,202,Wunderground v.1.15,2013-04-22 19:17:00,
2013-04-22 14:23:00,39.4,37.3,29.50,NW,311,17.0,19.0,92,0.32,,,0.59,200,Wunderground v.1.15,2013-04-22 19:23:00,
2013-04-22 14:29:00,38.3,36.5,29.50,WNW,301,16.0,16.0,93,0.24,,,0.62,188,Wunderground v.1.15,2013-04-22 19:29:00,
2013-04-22 14:35:00,37.4,35.6,29.50,NW,308,16.0,22.0,93,0.33,,,0.65,179,Wunderground v.1.15,2013-04-22 19:35:00,
2013-04-22 14:41:00,36.5,34.7,28.15,NW,319,16.0,16.0,93,0.27,,,0.68,176,Wunderground v.1.15,2013-04-22 19:41:00,
2013-04-22 14:47:00,35.9,34.1,24.08,NNW,327,15.0,16.0,93,0.20,,,0.70,176,Wunderground v.1.15,2013-04-22 19:47:00,
2013-04-22 14:53:00,35.5,33.7,28.16,NNE,16,15.0,15.0,93,0.12,,,0.72,160,Wunderground v.1.15,2013-04-22 19:53:00,
2013-04-22 14:59:00,35.0,33.2,32.23,NNW,335,12.0,12.0,93,0.17,,,0.73,163,Wunderground v.1.15,2013-04-22 19:59:00,
2013-04-22 15:06:00,34.8,33.2,24.08,NNW,333,9.0,29.0,94,0.17,,,0.75,162,Wunderground v.1.15,2013-04-22 20:06:00,
2013-04-22 15:11:00,34.8,33.2,24.08,NW,308,8.0,8.0,94,0.11,,,0.76,160,Wunderground v.1.15,2013-04-22 20:11:00,
2013-04-22 15:17:00,34.8,33.2,24.08,NNW,337,7.0,10.0,94,0.13,,,0.77,162,Wunderground v.1.15,2013-04-22 20:17:00,
2013-04-22 15:23:00,34.7,33.2,24.09,NNW,331,7.0,12.0,94,0.24,,,0.79,163,Wunderground v.1.15,2013-04-22 20:23:00,
2013-04-22 15:29:00,34.7,33.2,28.16,North,5,6.0,6.0,94,0.22,,,0.82,162,Wunderground v.1.15,2013-04-22 20:29:00,
2013-04-22 15:35:00,34.5,33.0,28.16,NNW,338,8.0,9.0,94,0.16,,,0.84,162,Wunderground v.1.15,2013-04-22 20:35:00,
2013-04-22 15:41:00,34.3,32.8,29.53,NW,324,10.0,14.0,94,0.15,,,0.85,160,Wunderground v.1.15,2013-04-22 20:41:00,
2013-04-22 15:47:00,34.0,32.5,25.45,NNW,332,11.0,14.0,94,0.20,,,0.88,155,Wunderground v.1.15,2013-04-22 20:47:00,
2013-04-22 15:53:00,33.9,32.4,25.45,NW,320,9.0,10.0,94,0.15,,,0.89,151,Wunderground v.1.15,2013-04-22 20:53:00,
2013-04-22 15:59:00,33.7,32.2,28.17,NW,311,8.0,13.0,94,0.10,,,0.90,151,Wunderground v.1.15,2013-04-22 20:59:00,
2013-04-22 16:05:00,33.6,32.1,26.82,NW,322,10.0,29.0,94,0.13,,,0.92,151,Wunderground v.1.15,2013-04-22 21:05:00,
2013-04-22 16:11:00,33.6,32.1,28.18,NNW,347,10.0,13.0,94,0.19,,,0.93,148,Wunderground v.1.15,2013-04-22 21:11:00,
2013-04-22 16:17:00,33.5,32.0,28.18,NW,306,11.0,13.0,94,0.08,,,0.94,139,Wunderground v.1.15,2013-04-22 21:17:00,
2013-04-22 16:23:00,33.7,32.2,24.11,NNW,346,10.0,15.0,94,0.12,,,0.95,139,Wunderground v.1.15,2013-04-22 21:23:00,
2013-04-22 16:29:00,33.9,32.4,24.11,NNW,346,9.0,9.0,94,0.07,,,0.95,139,Wunderground v.1.15,2013-04-22 21:29:00,
2013-04-22 16:36:00,34.0,32.5,31.12,WNW,302,10.0,10.0,94,0.06,,,0.96,139,Wunderground v.1.15,2013-04-22 21:36:00,
2013-04-22 16:41:00,34.1,32.6,28.20,NW,309,10.0,16.0,94,0.06,,,0.96,141,Wunderground v.1.15,2013-04-22 21:41:00,
2013-04-22 16:47:00,34.2,32.4,28.20,NW,315,11.0,16.0,93,0.04,,,0.96,141,Wunderground v.1.15,2013-04-22 21:47:00,
2013-04-22 16:53:00,34.3,32.8,24.13,NW,317,11.0,15.0,94,0.00,,,0.96,142,Wunderground v.1.15,2013-04-22 21:53:00,
2013-04-22 16:59:00,34.4,32.9,24.13,NW,313,10.0,12.0,94,0.00,,,0.96,141,Wunderground v.1.15,2013-04-22 21:59:00,
2013-04-22 17:05:00,34.4,32.6,28.21,NNW,346,10.0,19.0,93,0.00,,,0.97,142,Wunderground v.1.15,2013-04-22 22:05:00,
2013-04-22 17:11:00,34.1,32.0,30.93,NW,323,12.0,14.0,92,0.00,,,0.97,142,Wunderground v.1.15,2013-04-22 22:11:00,
2013-04-22 17:17:00,33.6,31.5,30.93,NNW,336,13.0,14.0,92,0.00,,,0.97,139,Wunderground v.1.15,2013-04-22 22:17:00,
2013-04-22 17:23:00,33.5,31.2,24.15,NW,319,12.0,13.0,91,0.00,,,0.97,135,Wunderground v.1.15,2013-04-22 22:23:00,
2013-04-22 17:29:00,33.5,31.2,29.59,North,5,11.0,11.0,91,0.00,,,0.97,135,Wunderground v.1.15,2013-04-22 22:29:00,
2013-04-22 17:35:00,33.3,31.0,24.17,North,350,11.0,13.0,91,0.00,,,0.97,142,Wunderground v.1.15,2013-04-22 22:35:00,
2013-04-22 17:41:00,33.1,30.8,24.17,NNW,342,10.0,11.0,91,0.00,,,0.97,142,Wunderground v.1.15,2013-04-22 22:41:00,
2013-04-22 17:47:00,32.7,30.4,29.61,NNE,15,9.0,11.0,91,0.00,,,0.97,139,Wunderground v.1.15,2013-04-22 22:47:00,
2013-04-22 17:53:00,32.6,30.5,29.62,NNW,327,9.0,11.0,92,0.00,,,0.97,139,Wunderground v.1.15,2013-04-22 22:53:00,
2013-04-22 17:59:00,32.4,30.1,31.18,NNW,329,8.0,9.0,91,0.00,,,0.97,134,Wunderground v.1.15,2013-04-22 22:59:00,
2013-04-22 18:06:00,32.1,30.3,31.18,North,350,8.0,22.0,93,0.00,,,0.97,130,Wunderground v.1.15,2013-04-22 23:06:00,
2013-04-22 18:11:00,32.1,30.3,31.00,NW,322,8.0,15.0,93,0.00,,,0.97,132,Wunderground v.1.15,2013-04-22 23:11:00,
2013-04-22 18:17:00,32.1,30.6,31.00,North,360,7.0,15.0,94,0.00,,,0.97,130,Wunderground v.1.15,2013-04-22 23:17:00,
2013-04-22 18:23:00,32.3,30.8,31.00,NNE,14,7.0,9.0,94,0.00,,,0.97,130,Wunderground v.1.15,2013-04-22 23:23:00,
2013-04-22 18:29:00,32.4,30.6,26.98,NW,323,7.0,7.0,93,0.00,,,0.97,137,Wunderground v.1.15,2013-04-22 23:29:00,
2013-04-22 18:35:00,32.5,30.7,31.05,NNW,346,8.0,8.0,93,0.00,,,0.97,137,Wunderground v.1.15,2013-04-22 23:35:00,
2013-04-22 18:41:00,32.5,30.7,31.05,NNW,340,8.0,9.0,93,0.00,,,0.97,139,Wunderground v.1.15,2013-04-22 23:41:00,
2013-04-22 18:48:00,32.5,30.7,31.05,NNW,327,8.0,9.0,93,0.00,,,0.97,144,Wunderground v.1.15,2013-04-22 23:48:00,
2013-04-22 18:53:00,32.5,30.7,31.25,North,350,8.0,9.0,93,0.00,,,0.97,151,Wunderground v.1.15,2013-04-22 23:53:00,
2013-04-22 18:59:00,32.6,30.8,31.25,WNW,292,8.0,9.0,93,0.00,,,0.97,153,Wunderground v.1.15,2013-04-22 23:59:00,
2013-04-22 19:05:00,32.6,30.5,31.26,WNW,299,9.0,23.0,92,0.00,,,0.98,151,Wunderground v.1.15,2013-04-23 00:05:00,
2013-04-22 19:11:00,32.6,30.5,32.45,NNW,329,9.0,9.0,92,0.00,,,0.98,156,Wunderground v.1.15,2013-04-23 00:11:00,
2013-04-22 19:17:00,32.5,30.4,32.45,NNW,337,8.0,12.0,92,0.00,,,0.98,158,Wunderground v.1.15,2013-04-23 00:17:00,
2013-04-22 19:23:00,32.5,30.4,31.27,North,11,8.0,8.0,92,0.00,,,0.98,162,Wunderground v.1.15,2013-04-23 00:23:00,
2013-04-22 19:29:00,32.5,30.4,31.28,NW,319,8.0,8.0,92,0.00,,,0.98,165,Wunderground v.1.15,2013-04-23 00:29:00,
2013-04-22 19:35:00,32.5,30.4,32.48,NNW,338,8.0,10.0,92,0.00,,,0.98,171,Wunderground v.1.15,2013-04-23 00:35:00,
2013-04-22 19:41:00,32.5,30.4,31.29,NW,306,8.0,14.0,92,0.00,,,0.98,169,Wunderground v.1.15,2013-04-23 00:41:00,
2013-04-22 19:47:00,32.4,30.1,31.30,NNW,331,9.0,14.0,91,0.00,,,0.98,165,Wunderground v.1.15,2013-04-23 00:47:00,
2013-04-22 19:53:00,32.5,30.2,31.31,NNW,330,9.0,13.0,91,0.00,,,0.98,169,Wunderground v.1.15,2013-04-23 00:53:00,
2013-04-22 19:59:00,32.5,29.9,31.31,WNW,300,9.0,9.0,90,0.00,,,0.98,172,Wunderground v.1.15,2013-04-23 00:59:00,
2013-04-22 20:05:00,32.5,30.2,31.31,NNW,334,9.0,18.0,91,0.00,,,0.98,176,Wunderground v.1.15,2013-04-23 01:05:00,
2013-04-22 20:11:00,32.5,29.9,31.32,NNW,327,8.0,9.0,90,0.00,,,0.98,179,Wunderground v.1.15,2013-04-23 01:11:00,
2013-04-22 20:17:00,32.5,29.9,31.32,NW,318,7.0,11.0,90,0.00,,,0.98,192,Wunderground v.1.15,2013-04-23 01:17:00,
2013-04-22 20:23:00,32.6,30.0,31.32,NNW,327,8.0,9.0,90,0.00,,,0.98,195,Wunderground v.1.15,2013-04-23 01:23:00,
2013-04-22 20:29:00,32.6,30.0,20.03,NW,315,10.0,10.0,90,0.00,,,0.98,200,Wunderground v.1.15,2013-04-23 01:29:00,
2013-04-22 20:35:00,32.7,30.1,25.74,NNW,346,9.0,12.0,90,0.00,,,0.98,216,Wunderground v.1.15,2013-04-23 01:35:00,
2013-04-22 20:41:00,32.7,29.8,27.65,NNW,329,9.0,11.0,89,0.00,,,0.98,223,Wunderground v.1.15,2013-04-23 01:41:00,
2013-04-22 20:47:00,32.8,29.9,27.66,NW,320,10.0,11.0,89,0.00,,,0.98,243,Wunderground v.1.15,2013-04-23 01:47:00,
2013-04-22 20:53:00,32.8,29.9,31.46,NW,315,9.0,15.0,89,0.00,,,0.98,251,Wunderground v.1.15,2013-04-23 01:53:00,
2013-04-22 20:59:00,32.8,29.9,31.46,NNW,338,9.0,9.0,89,0.00,,,0.98,258,Wunderground v.1.15,2013-04-23 01:59:00,
2013-04-22 21:06:00,32.5,29.6,31.46,NNW,336,10.0,20.0,89,0.00,,,0.98,264,Wunderground v.1.15,2013-04-23 02:06:00,
2013-04-22 21:11:00,32.3,29.4,23.89,NW,324,11.0,14.0,89,0.00,,,0.98,262,Wunderground v.1.15,2013-04-23 02:11:00,
2013-04-22 21:17:00,32.2,29.3,23.89,NW,320,10.0,14.0,89,0.00,,,0.98,262,Wunderground v.1.15,2013-04-23 02:17:00,
2013-04-22 21:23:00,32.1,29.2,20.10,NNW,334,10.0,11.0,89,0.00,,,0.98,262,Wunderground v.1.15,2013-04-23 02:23:00,
2013-04-22 21:29:00,32.2,29.3,27.70,NNW,339,10.0,10.0,89,0.00,,,0.98,262,Wunderground v.1.15,2013-04-23 02:29:00,
2013-04-22 21:35:00,32.1,29.2,20.11,NNW,333,8.0,11.0,89,0.00,,,0.98,260,Wunderground v.1.15,2013-04-23 02:35:00,
2013-04-22 21:41:00,32.1,29.2,31.40,NNW,340,8.0,12.0,89,0.00,,,0.98,257,Wunderground v.1.15,2013-04-23 02:41:00,
2013-04-22 21:47:00,32.1,29.2,31.40,NNW,331,8.0,12.0,89,0.00,,,0.98,260,Wunderground v.1.15,2013-04-23 02:47:00,
2013-04-22 21:53:00,31.9,29.0,31.51,NNW,333,8.0,14.0,89,0.00,,,0.98,253,Wunderground v.1.15,2013-04-23 02:53:00,
2013-04-22 21:59:00,31.7,28.8,31.51,NNW,344,9.0,11.0,89,0.00,,,0.98,253,Wunderground v.1.15,2013-04-23 02:59:00,
2013-04-22 22:05:00,31.7,28.8,20.13,WNW,302,9.0,22.0,89,0.00,,,0.98,253,Wunderground v.1.15,2013-04-23 03:05:00,
2013-04-22 22:11:00,31.7,28.8,23.93,NNW,346,9.0,12.0,89,0.00,,,0.98,257,Wunderground v.1.15,2013-04-23 03:11:00,
2013-04-22 22:17:00,31.7,28.8,20.14,NNW,344,7.0,12.0,89,0.00,,,0.98,260,Wunderground v.1.15,2013-04-23 03:17:00,
2013-04-22 22:23:00,31.7,28.8,20.14,North,5,7.0,12.0,89,0.00,,,0.98,258,Wunderground v.1.15,2013-04-23 03:23:00,
2013-04-22 22:29:00,31.7,28.8,27.74,NNW,337,7.0,7.0,89,0.00,,,0.98,258,Wunderground v.1.15,2013-04-23 03:29:00,
2013-04-22 22:35:00,31.7,28.8,22.06,NW,321,8.0,13.0,89,0.00,,,0.98,262,Wunderground v.1.15,2013-04-23 03:35:00,
2013-04-22 22:41:00,31.7,28.8,22.06,NW,304,8.0,8.0,89,0.00,,,0.98,262,Wunderground v.1.15,2013-04-23 03:41:00,
2013-04-22 22:47:00,31.7,28.6,22.06,NNW,333,8.0,8.0,88,0.00,,,0.98,264,Wunderground v.1.15,2013-04-23 03:47:00,
2013-04-22 22:53:00,31.7,28.6,22.08,NNW,337,9.0,15.0,88,0.00,,,0.98,265,Wunderground v.1.15,2013-04-23 03:53:00,
2013-04-22 22:59:00,31.7,28.6,20.19,NNW,336,10.0,11.0,88,0.00,,,0.98,262,Wunderground v.1.15,2013-04-23 03:59:00,
2013-04-22 23:01:00,31.7,28.6,20.19,NNW,334,9.0,22.0,88,0.00,,,0.98,264,Wunderground v.1.15,2013-04-23 04:01:00,
2013-04-22 23:03:00,31.7,28.6,20.19,North,355,9.0,22.0,88,0.00,,,0.98,264,Wunderground v.1.15,2013-04-23 04:03:00,
2013-04-22 23:08:00,31.7,28.6,20.19,NNW,340,9.0,22.0,88,0.00,,,0.98,262,Wunderground v.1.15,2013-04-23 04:08:00,
2013-04-22 23:09:00,31.7,28.6,20.19,North,355,8.0,11.0,88,0.00,,,0.98,264,Wunderground v.1.15,2013-04-23 04:09:00,
2013-04-22 23:17:00,31.6,28.5,20.20,NNW,333,8.0,12.0,88,0.00,,,0.98,262,Wunderground v.1.15,2013-04-23 04:17:00,
2013-04-22 23:23:00,31.6,28.5,20.20,NNW,327,8.0,11.0,88,0.00,,,0.98,264,Wunderground v.1.15,2013-04-23 04:23:00,
2013-04-22 23:29:00,31.5,28.4,20.20,NNW,340,7.0,7.0,88,0.00,,,0.98,264,Wunderground v.1.15,2013-04-23 04:29:00,
2013-04-22 23:35:00,31.5,28.4,20.20,NNW,336,6.0,8.0,88,0.00,,,0.98,264,Wunderground v.1.15,2013-04-23 04:35:00,
2013-04-22 23:37:00,31.5,28.4,20.20,NNW,346,6.0,8.0,88,0.00,,,0.98,264,Wunderground v.1.15,2013-04-23 04:37:00,
2013-04-22 23:43:00,31.4,28.3,20.20,North,9,6.0,11.0,88,0.00,,,0.98,264,Wunderground v.1.15,2013-04-23 04:43:00,
2013-04-22 23:49:00,31.5,28.4,22.96,NNW,342,7.0,7.0,88,0.00,,,0.98,264,Wunderground v.1.15,2013-04-23 04:49:00,
2013-04-22 23:55:00,31.4,28.3,16.45,NW,323,6.0,7.0,88,0.00,,,0.98,264,Wunderground v.1.15,2013-04-23 04:55:00,